Regional Weather Roundup
Issued by NWS

Home | Current Version | Previous Version | Text Only | Print | Product List | Glossary On
Versions: 1 2 3 4 5 6 7 8 9 10 11 12 13 14 15 16 17 18 19 20 21 22 23 24 25 26 27 28 29 30 31 32 33 34 35 36 37 38 39 40 41 42 43 44 45 46 47 48 49 50
000
ASUS42 KFFC 260303
RWRGA
WEATHER ROUNDUP FOR GEORGIA
NATIONAL WEATHER SERVICE PEACHTREE CITY GA
1100 PM EDT MON JUL 25 2016

NOTE: "FAIR" INDICATES FEW OR NO CLOUDS BELOW 12,000 FEET WITH NO
SIGNIFICANT WEATHER AND/OR OBSTRUCTIONS TO VISIBILITY.

* = USE WITH CAUTION. THE STATIONS MARKED WITH AN ASTERISK MAY NOT
REPORT WEATHER SUCH AS PRECIPITATION, FOG, OR THUNDER AND ARE NOT
QUALITY CONTROLLED BY NWS.

THE REMARK "TC" DENOTES TEMPERATURE READING IN DEGREES CELSIUS.

GAZ001>058-260400-
NORTH GEORGIA

CITY           SKY/WX    TMP DP  RH WIND       PRES   REMARKS
ATLANTA        PTCLDY    77  74  90 NW3       30.07R
ATHENS         PTCLDY    83  72  69 SW3       30.05R
CHAMBLEE       CLOUDY    81  70  69 NW7       30.08R
PEACHTREE CITY MOCLDY    79  73  82 CALM      30.07R
ROME           MOCLDY    82  72  71 S12       30.04R
WEST ATLANTA   MOCLDY    75  73  93 N5        30.06R
GAINESVILLE    CLOUDY    81  70  69 W6        30.09R
CARTERSVILLE   LGT RAIN  76  72  87 S3        30.07R


CITY           SKY/WX    TMP DP  RH WIND       PRES   REMARKS
DALTON*        PTCLDY    81  72  74 CALM      30.03R
KENNESAW*      MOCLDY    77  72  83 CALM      30.06R
CANTON*        RAIN      75  68  78 W5        30.11R
BLAIRSVILLE*     N/A    N/A N/A N/A MISG      30.12S
$$

GAZ059>098-102>109-260400-
CENTRAL GEORGIA

CITY           SKY/WX    TMP DP  RH WIND       PRES   REMARKS
AUGUSTA-BUSH   PTCLDY    84  69  60 S9        30.03R
AUGUSTA-DANIEL CLEAR     86  68  54 S8        30.06R
COLUMBUS       MOCLDY    84  70  62 SW6       30.05R
MACON          MOCLDY    82  72  71 CALM      30.04R


CITY           SKY/WX    TMP DP  RH WIND       PRES   REMARKS
LAGRANGE*      PTCLDY    78  78  99 CALM      30.06R
MILLEDGEVILLE* PTCLDY    82  73  74 CALM      30.05R
$$

GAZ099>101-110>166-260400-
SOUTH GEORGIA

CITY           SKY/WX    TMP DP  RH WIND       PRES   REMARKS
SAVANNAH       CLEAR     80  73  79 S6        30.07R
VALDOSTA       CLEAR     79  74  84 S3        30.06R
ALMA           CLEAR     82  72  71 SE7       30.05R
ST SIMONS      PTCLDY    84  74  71 S9        30.06R HX  91
ALBANY         CLEAR     81  72  74 SW5       30.06R
BRUNSWICK      CLEAR     82  77  83 S6        30.07R HX  91


CITY           SKY/WX    TMP DP  RH WIND       PRES   REMARKS
BAINBRIDGE*    CLEAR     79  72  78 CALM      30.05R
MOULTRIE*      CLEAR     79  72  78 CALM      30.05R
VIDALIA*       CLEAR     82  70  65 SE6       30.07R
WAYCROSS*      CLEAR     84  76  76 S6        30.06R HX  94
DOUGLAS*       CLEAR     81  70  69 CALM      30.07R
$$



USA.gov is the U.S. government's official web portal to all federal, state and local government web resources and services.